Location: Saint-Palais-sur-Mer
(45.6429°N, 1.0859°W)
Time: 21:21:41
(UTC+02:00)

CUBEBUG 2 - Pass Details

Date: 26 April 2024
Orbit: 570 x 669 km, 97.8° (Epoch: 19 May)

Event Time Altitude Azimuth Distance (km) Brightness Sun altitude
Rises 04:39:37 0° 8° (N) 2,797 ? -20.9°
Reaches altitude 10° 04:41:47 10° 4° (N) 1,902 ? -20.6°
Maximum altitude 04:45:48 54° 287° (WNW) 714 ? -20.2°
Enters shadow 04:46:22 50° 255° (WSW) 758 ? -20.1°
